Terminal Aerodrome Forecast
Issued by NWS

Home | Current Version | Previous Version | Text Only | Print | Product List | Glossary On
Versions: 1 2 3 4 5 6 7 8 9 10 11 12 13 14 15 16 17 18 19 20 21 22 23 24 25 26 27 28 29 30 31 32 33 34 35 36
000
FTPA31 PHFO 210000 AAA
TAFITO
TAF AMD
PHTO 210000Z 2100/2124 11011KT P6SM SCT025 BKN050
     FM210500 22005KT P6SM VCSH SCT025 BKN045
     FM212100 12009KT P6SM FEW025 SCT045=

USA.gov is the U.S. government's official web portal to all federal, state and local government web resources and services.